Regional Weather Roundup
Issued by NWS

Home | Current Version | Previous Version | Text Only | Print | Product List | Glossary On
Versions: 1 2 3 4 5 6 7 8 9 10 11 12 13 14 15 16 17 18 19 20 21 22 23 24 25 26 27 28 29 30 31 32 33 34 35 36 37 38 39 40 41 42 43 44 45 46 47 48 49 50
000
ASUS43 KDTX 240010
RWRMI
MICHIGAN HOURLY REGIONAL WEATHER ROUNDUP
NATIONAL WEATHER SERVICE DETROIT/PONTIAC MI
700 PM EST TUE JAN 23 2018

NOTE: "FAIR" INDICATES FEW OR NO CLOUDS BELOW 12,000 FEET WITH NO
SIGNIFICANT WEATHER AND/OR OBSTRUCTION TO VISIBILITY.

MIZ047>049-052>055-059>063-066>070-074>076-081>083-240100-
SOUTHEAST LOWER MICHIGAN

CITY           SKY/WX    TMP DP  RH WIND       PRES   REMARKS
ADRIAN         CLOUDY    31  25  78 NW18G29   29.90R WCI  19
6HR MIN TEMP:  31; 6HR MAX TEMP:  35;

ALMA           CLOUDY    28  23  82 NW10G18   29.90R WCI  18
6HR MIN TEMP:  28; 6HR MAX TEMP:  32;

ANN ARBOR      CLOUDY    30  25  81 W20G25    29.86R WCI  17
BAD AXE        CLOUDY    24  19  83 NW22      29.82R WCI   8
6HR MIN TEMP:  24; 6HR MAX TEMP:  28;

CARO           CLOUDY    25  20  81 NW13G23   29.85R WCI  14
DETROIT CITY   CLOUDY    32  25  75 W10G24    29.84R WCI  24
6HR MIN TEMP:  32; 6HR MAX TEMP:  39; 6HR PCP:  0.01;

DETROIT        CLOUDY    32  25  75 W21G28    29.86R WCI  20
6HR MIN TEMP:  32; 6HR MAX TEMP:  39; 6HR PCP: TRACE;

FLINT          CLOUDY    28  22  78 NW13G23   29.86R WCI  17
6HR MIN TEMP:  28; 6HR MAX TEMP:  35; 6HR PCP: TRACE;

GROSSE ILE     CLOUDY    33  26  78 W13       29.85R WCI  23
6HR MIN TEMP:  33; 6HR MAX TEMP:  39;

HILLSDALE      CLOUDY    30  27  86 W15G25    29.88R WCI  19
HOWELL         CLOUDY    29  26  87 W16       29.86R WCI  18
6HR MIN TEMP:  29; 6HR MAX TEMP:  34;


CITY           SKY/WX    TMP DP  RH WIND       PRES   REMARKS
JACKSON        CLOUDY    30  24  78 W13G31    29.88R WCI  20
6HR MIN TEMP:  30; 6HR MAX TEMP:  34; 6HR PCP: TRACE;

LAMBERTVILLE   CLOUDY    32  25  76 W13G23    29.90R WCI  22
6HR MIN TEMP:  32; 6HR MAX TEMP:  37;

LANSING        CLOUDY    29  23  78 NW17G25   29.89R WCI  17
6HR MIN TEMP:  28; 6HR MAX TEMP:  32; 6HR PCP: TRACE;

LAPEER         CLOUDY    28  23  81 NW15G22   29.83R WCI  17
6HR MIN TEMP:  28; 6HR MAX TEMP:  37;

MASON          CLOUDY    30  23  74 NW16      29.89R WCI  19
MONROE         CLOUDY    32  25  76 W14G26    29.87R WCI  22
6HR MIN TEMP:  32; 6HR MAX TEMP:  38;

MT. CLEMENS    CLOUDY    31  29  90 W15       29.80R WCI  21
6HR MIN TEMP:  31; 6HR MAX TEMP:  39; 6HR PCP: TRACE;

PONTIAC        FLURRIES  29  26  89 NW17      29.82R WCI  17
6HR MIN TEMP:  29; 6HR MAX TEMP:  37; 6HR PCP: TRACE;

PORT HOPE        N/A     23  16  74 NW23G32   29.79R WCI   7
6HR MIN TEMP:  23; 6HR MAX TEMP:  29;

PORT HURON     LGT SNOW  30  27  86 W9G16     29.82R WCI  22
TRI CITIES     CLOUDY    26  21  81 NW16      29.88R WCI  14
6HR MIN TEMP:  26; 6HR MAX TEMP:  33; 6HR PCP:  0.02;

MIDLAND        CLOUDY    26  20  79 NW9       29.87R WCI  16
6HR MIN TEMP:  26; 6HR MAX TEMP:  32;

TROY           CLOUDY    32  26  79 W18G25    29.85R WCI  20
SAGINAW HB     CLOUDY    27  21  80 NW15G24   29.87R WCI  15
$$
MIZ043>046-050>051-056>058-064>065-071>073-077>080-240100-
SOUTHWEST LOWER MICHIGAN

CITY           SKY/WX    TMP DP  RH WIND       PRES   REMARKS
BATTLE CREEK   CLOUDY    30  24  78 NW17G26   29.92R WCI  18
6HR MIN TEMP:  30; 6HR MAX TEMP:  32; 6HR PCP: TRACE;

BENTON HARBOR  CLOUDY    32  25  75 NW13G22   30.01R WCI  22
6HR MIN TEMP:  31; 6HR MAX TEMP:  32; 6HR PCP:  0.01;

BIG RAPIDS     CLOUDY    26  20  77 NW14G21   29.90R WCI  15
6HR MIN TEMP:  25; 6HR MAX TEMP:  26;

COLDWATER      CLOUDY    30  28  90 W20       29.92R WCI  18
6HR MIN TEMP:  30; 6HR MAX TEMP:  33;

FREMONT        CLOUDY    29  20  69 NW22      29.95R WCI  15
6HR MIN TEMP:  28; 6HR MAX TEMP:  29;

HOLLAND        CLOUDY    32  23  69 NW12G20   29.97R WCI  23
6HR MIN TEMP:  30; 6HR MAX TEMP:  32; 6HR PCP:  0.01;

GRAND RAPIDS   CLOUDY    29  21  72 NW13G24   29.94R WCI  19
6HR MIN TEMP:  29; 6HR MAX TEMP:  31; 6HR PCP: TRACE;

IONIA          CLOUDY    29  22  78 NW14G23   29.90R WCI  18
6HR MIN TEMP:  29; 6HR MAX TEMP:  32;

KALAMAZOO      CLOUDY    31  25  78 NW18G24   29.94R WCI  19
6HR MIN TEMP:  30; 6HR MAX TEMP:  33; 6HR PCP: TRACE;

LUDINGTON      CLOUDY    28  23  82 N15G21    29.99R WCI  16
6HR MIN TEMP:  27; 6HR MAX TEMP:  30;

MARSHALL       CLOUDY    30  24  79 W13G26    29.91R WCI  20
6HR MIN TEMP:  29; 6HR MAX TEMP:  32;

MOUNT PLEASANT CLOUDY    28  21  77 NW9       29.88R WCI  19
6HR MIN TEMP:  27; 6HR MAX TEMP:  31;

MUSKEGON       CLOUDY    30  23  75 NW15G25   29.99R WCI  19
6HR MIN TEMP:  30; 6HR MAX TEMP:  31; 6HR PCP: TRACE;

SOUTH HAVEN    CLOUDY    33  26  74 N16G23    29.99R WCI  22
$$
MIZ016>042-240100-
NORTHERN LOWER MICHIGAN

CITY           SKY/WX    TMP DP  RH WIND       PRES   REMARKS
ALPENA         CLOUDY    22  18  85 NW17G24   29.83R WCI   8
6HR MIN TEMP:  19; 6HR MAX TEMP:  22; 6HR PCP: TRACE;

BEAVER ISLAND  CLOUDY    22  17  79 NW9       29.94R WCI  12
6HR MIN TEMP:  21; 6HR MAX TEMP:  24;

BELLAIRE       CLOUDY    25  21  85 NW7G20    29.93R WCI  17
6HR MIN TEMP:  22; 6HR MAX TEMP:  25;

CADILLAC       CLOUDY    25  20  82 NW14G22   29.87R WCI  13
CHARLEVOIX     CLOUDY    24  19  81 NW7       29.97R WCI  16
6HR MIN TEMP:  21; 6HR MAX TEMP:  25;

FRANKFORT      CLOUDY    28  22  76 NW8G17    29.98R WCI  20
GAYLORD        CLOUDY    20  19  96 NW10      29.85R WCI   9
6HR MIN TEMP:  18; 6HR MAX TEMP:  20; 6HR PCP:  0.01;

GRAYLING       CLOUDY    22  18  84 NW13G24   29.87R WCI  10
6HR MIN TEMP:  20; 6HR MAX TEMP:  22;

HARBOR SPRINGS CLOUDY    21  17  85 NW6       29.89R WCI  14
HOUGHTON LAKE  CLOUDY    23  18  81 NW14      29.85R WCI  11
6HR MIN TEMP:  21; 6HR MAX TEMP:  24; 6HR PCP: TRACE;

MANISTEE       CLOUDY    27  22  81 N10G20    29.98R WCI  17
OSCODA         CLOUDY    21  16  82 NW17      29.82R WCI   7
6HR MIN TEMP:  20; 6HR MAX TEMP:  24;

PELLSTON       CLOUDY    21  17  84 NW24      29.91R WCI   4
6HR MIN TEMP:  19; 6HR MAX TEMP:  23;

ROGERS CITY    FLURRIES  23  19  85 NW8G17    29.86R WCI  14
TRAVERSE CITY  CLOUDY    27  20  75 NW16G24   29.93R WCI  15
6HR MIN TEMP:  24; 6HR MAX TEMP:  29; 6HR PCP: TRACE;

$$
MIZ007>008-015-240100-
EASTERN UPPER MICHIGAN

CITY           SKY/WX    TMP DP  RH WIND       PRES   REMARKS
KINROSS        FLURRIES  18  14  84 NW17      29.88R WCI   3
6HR MIN TEMP:  13; 6HR MAX TEMP:  19;

MACKINAC ISLAN CLOUDY    19  15  84 NW14G25   29.89R WCI   6
6HR MIN TEMP:  19; 6HR MAX TEMP:  21;

NEWBERRY       FLURRIES  17  16  96 N12G17    29.93R WCI   4
6HR MIN TEMP:  17; 6HR MAX TEMP:  20;

S. S. MARIE    MOCLDY    19  11  70 NW8       29.88R WCI   9
6HR MIN TEMP:  18; 6HR MAX TEMP:  22;

MUNISING         N/A     22  17  81 N18G29    30.01R WCI   7
6HR MIN TEMP:  21; 6HR MAX TEMP:  24;

$$
MIZ004>006-011>014-085-240100-
CENTRAL UPPER MICHIGAN

CITY           SKY/WX    TMP DP  RH WIND       PRES   REMARKS
MANISTIQUE     CLOUDY    19  14  79 NW13G21   29.98R WCI   7
ESCANABA       FLURRIES  20  13  74 NW8       30.04R WCI  10
6HR MIN TEMP:  20; 6HR MAX TEMP:  26; 6HR PCP: TRACE;

MENOMINEE      MOCLDY    23  18  81 N12       30.05R WCI  12
6HR MIN TEMP:  23; 6HR MAX TEMP:  28;

SAWYER-GWINN   FLURRIES  16  10  79 N18G25    30.00R WCI  -1
$$
MIZ001>003-009>011-084-240100-
WESTERN UPPER MICHIGAN

CITY           SKY/WX    TMP DP  RH WIND       PRES   REMARKS
IRON MOUNTAIN  FAIR      18  12  77 NW9       30.01R WCI   7
6HR MIN TEMP:  17; 6HR MAX TEMP:  23; 6HR PCP: TRACE;

HOUGHTON       CLOUDY    14   7  73 N8        30.07R WCI   3
6HR MIN TEMP:  14; 6HR MAX TEMP:  18; 6HR PCP: TRACE;

COPPER HARBOR    N/A     19  12  74 NE17G28   30.09R WCI   4
6HR MIN TEMP:  18; 6HR MAX TEMP:  20;

IRONWOOD       CLOUDY    13  11  92 CALM      30.09R
6HR MIN TEMP:  13; 6HR MAX TEMP:  21; 6HR PCP: TRACE;

$$

ABBREVIATIONS USED IN REMARKS
   TC - TEMPERATURE IN CELSIUS
  WCI - WIND CHILL INDEX
   HX - HEAT INDEX
  VSB - VISIBILITY





USA.gov is the U.S. government's official web portal to all federal, state and local government web resources and services.